Meteo orario Alice Springs

Oggi, 21 Ottobre, Mercoledi

Tempo Temperatura Precipitazioni Vento Pressione Umidità
00:00 +31°C° 0 mm 3 m/s 706 mm Hg 27%
01:00 +30°C° 0 mm 3 m/s 706 mm Hg 30%
02:00 +29°C° 0 mm 3 m/s 705 mm Hg 32%
03:00 +27°C° 0 mm 2 m/s 705 mm Hg 35%
04:00 +27°C° 0 mm 3 m/s 706 mm Hg 36%
05:00 +27°C° 0 mm 3 m/s 706 mm Hg 37%
06:00 +27°C° 0 mm 4 m/s 706 mm Hg 37%
07:00 +30°C° 0 mm 5 m/s 707 mm Hg 33%
08:00 +33°C° 0 mm 6 m/s 708 mm Hg 28%
09:00 +35°C° 0 mm 8 m/s 709 mm Hg 25%
10:00 +37°C° 0 mm 8 m/s 708 mm Hg 23%
11:00 +38°C° 0 mm 8 m/s 707 mm Hg 20%
12:00 +39°C° 0 mm 8 m/s 707 mm Hg 17%
13:00 +39°C° 0 mm 7 m/s 706 mm Hg 18%
14:00 +38°C° 0 mm 7 m/s 706 mm Hg 19%
15:00 +38°C° 0 mm 6 m/s 705 mm Hg 20%
16:00 +36°C° 0 mm 6 m/s 705 mm Hg 21%
17:00 +36°C° 0 mm 6 m/s 705 mm Hg 22%
18:00 +35°C° 0 mm 5 m/s 705 mm Hg 23%
19:00 +34°C° 0 mm 6 m/s 705 mm Hg 25%
20:00 +33°C° 0 mm 6 m/s 706 mm Hg 26%
21:00 +32°C° 0 mm 7 m/s 706 mm Hg 27%
22:00 +32°C° 0 mm 6 m/s 706 mm Hg 29%
23:00 +30°C° 0 mm 6 m/s 705 mm Hg 30%

Domani, 22 Ottobre, Giovedi

Tempo Temperatura Precipitazioni Vento Pressione Umidità
00:00 +29°C° 0 mm 6 m/s 705 mm Hg 32%
01:00 +29°C° 0 mm 5 m/s 705 mm Hg 33%
02:00 +29°C° 0 mm 5 m/s 704 mm Hg 34%
03:00 +28°C° 0 mm 4 m/s 704 mm Hg 35%
04:00 +28°C° 0 mm 5 m/s 704 mm Hg 36%
05:00 +28°C° 0 mm 5 m/s 705 mm Hg 37%
06:00 +28°C° 0 mm 5 m/s 705 mm Hg 38%
07:00 +30°C° 0 mm 7 m/s 705 mm Hg 33%
08:00 +34°C° 0 mm 8 m/s 706 mm Hg 28%
09:00 +38°C° 0 mm 10 m/s 706 mm Hg 23%
10:00 +39°C° 0 mm 9 m/s 705 mm Hg 22%
11:00 +39°C° 0 mm 8 m/s 705 mm Hg 20%
12:00 +40°C° 0 mm 8 m/s 704 mm Hg 18%
13:00 +38°C° 0.4 mm 6 m/s 704 mm Hg 22%
14:00 +35°C° 0.4 mm 5 m/s 703 mm Hg 27%
15:00 +33°C° 0.4 mm 4 m/s 703 mm Hg 32%
16:00 +33°C° 0 mm 6 m/s 703 mm Hg 33%
17:00 +33°C° 0 mm 8 m/s 703 mm Hg 33%
18:00 +33°C° 0 mm 10 m/s 703 mm Hg 33%
19:00 +32°C° 0 mm 10 m/s 703 mm Hg 34%
20:00 +32°C° 0 mm 9 m/s 704 mm Hg 35%
21:00 +31°C° 0 mm 9 m/s 704 mm Hg 37%
22:00 +31°C° 0 mm 10 m/s 703 mm Hg 38%
23:00 +29°C° 0 mm 10 m/s 703 mm Hg 40%

Dopodomani, 23 Ottobre, Venerdi

Tempo Temperatura Precipitazioni Vento Pressione Umidità
00:00 +28°C° 0 mm 11 m/s 702 mm Hg 42%
01:00 +28°C° 0 mm 10 m/s 703 mm Hg 45%
02:00 +27°C° 0 mm 9 m/s 703 mm Hg 47%
03:00 +27°C° 0 mm 8 m/s 703 mm Hg 50%
04:00 +26°C° 0 mm 6 m/s 704 mm Hg 49%
05:00 +25°C° 0 mm 5 m/s 704 mm Hg 48%
06:00 +23°C° 0 mm 4 m/s 705 mm Hg 47%
07:00 +25°C° 0 mm 4 m/s 705 mm Hg 45%
08:00 +26°C° 0 mm 4 m/s 705 mm Hg 43%
09:00 +28°C° 0 mm 4 m/s 705 mm Hg 40%
10:00 +29°C° 0 mm 5 m/s 705 mm Hg 34%
11:00 +32°C° 0 mm 5 m/s 705 mm Hg 28%
12:00 +34°C° 0 mm 5 m/s 705 mm Hg 21%
13:00 +35°C° 0 mm 7 m/s 705 mm Hg 19%
14:00 +35°C° 0 mm 9 m/s 704 mm Hg 17%
15:00 +37°C° 0 mm 11 m/s 703 mm Hg 15%
16:00 +34°C° 0 mm 10 m/s 704 mm Hg 16%
17:00 +33°C° 0 mm 10 m/s 704 mm Hg 17%
18:00 +32°C° 0 mm 10 m/s 704 mm Hg 18%
19:00 +29°C° 0 mm 10 m/s 705 mm Hg 24%
20:00 +26°C° 0 mm 9 m/s 705 mm Hg 30%
21:00 +23°C° 0 mm 9 m/s 706 mm Hg 35%
22:00 +22°C° 0 mm 9 m/s 706 mm Hg 41%
23:00 +21°C° 0 mm 8 m/s 706 mm Hg 46%

24 Ottobre, Sabato

Tempo Temperatura Precipitazioni Vento Pressione Umidità
00:00 +20°C° 0 mm 7 m/s 707 mm Hg 51%
01:00 +18°C° 0 mm 7 m/s 707 mm Hg 52%
02:00 +18°C° 0 mm 7 m/s 707 mm Hg 54%
03:00 +17°C° 0 mm 7 m/s 707 mm Hg 56%
04:00 +17°C° 0 mm 6 m/s 707 mm Hg 58%
05:00 +16°C° 0 mm 6 m/s 707 mm Hg 61%
06:00 +16°C° 0 mm 6 m/s 708 mm Hg 63%
07:00 +17°C° 0 mm 6 m/s 708 mm Hg 59%
08:00 +19°C° 0 mm 5 m/s 709 mm Hg 55%
09:00 +20°C° 0 mm 4 m/s 709 mm Hg 51%
10:00 +21°C° 0 mm 3 m/s 709 mm Hg 46%
11:00 +24°C° 0 mm 3 m/s 708 mm Hg 40%
12:00 +25°C° 0 mm 2 m/s 708 mm Hg 35%
13:00 +27°C° 0 mm 3 m/s 708 mm Hg 31%
14:00 +28°C° 0 mm 4 m/s 707 mm Hg 28%
15:00 +29°C° 0 mm 5 m/s 707 mm Hg 24%
16:00 +29°C° 0 mm 5 m/s 707 mm Hg 25%
17:00 +28°C° 0 mm 6 m/s 707 mm Hg 26%
18:00 +27°C° 0 mm 6 m/s 707 mm Hg 27%
19:00 +26°C° 0 mm 6 m/s 707 mm Hg 28%
20:00 +24°C° 0 mm 6 m/s 708 mm Hg 30%
21:00 +22°C° 0 mm 6 m/s 709 mm Hg 31%
22:00 +22°C° 0 mm 6 m/s 709 mm Hg 33%
23:00 +21°C° 0 mm 6 m/s 709 mm Hg 35%

25 Ottobre, Domenica

Tempo Temperatura Precipitazioni Vento Pressione Umidità
00:00 +20°C° 0 mm 5 m/s 709 mm Hg 37%
01:00 +19°C° 0 mm 6 m/s 708 mm Hg 37%
02:00 +19°C° 0 mm 6 m/s 708 mm Hg 37%
03:00 +17°C° 0 mm 7 m/s 708 mm Hg 37%
04:00 +16°C° 0 mm 7 m/s 708 mm Hg 37%
05:00 +16°C° 0 mm 7 m/s 709 mm Hg 36%
06:00 +15°C° 0 mm 7 m/s 709 mm Hg 36%
07:00 +17°C° 0 mm 7 m/s 710 mm Hg 34%
08:00 +18°C° 0 mm 7 m/s 710 mm Hg 32%
09:00 +21°C° 0 mm 7 m/s 711 mm Hg 30%
10:00 +22°C° 0 mm 6 m/s 711 mm Hg 29%
11:00 +23°C° 0 mm 5 m/s 710 mm Hg 27%
12:00 +25°C° 0 mm 4 m/s 710 mm Hg 25%
13:00 +26°C° 0 mm 3 m/s 709 mm Hg 24%
14:00 +27°C° 0 mm 2 m/s 709 mm Hg 22%
15:00 +27°C° 0 mm 1 m/s 708 mm Hg 21%
16:00 +27°C° 0 mm 2 m/s 708 mm Hg 21%
17:00 +27°C° 0 mm 3 m/s 708 mm Hg 22%
18:00 +27°C° 0 mm 4 m/s 708 mm Hg 22%
19:00 +25°C° 0 mm 5 m/s 709 mm Hg 24%
20:00 +23°C° 0 mm 5 m/s 709 mm Hg 27%
21:00 +22°C° 0 mm 6 m/s 709 mm Hg 29%
22:00 +21°C° 0 mm 6 m/s 709 mm Hg 30%
23:00 +20°C° 0 mm 5 m/s 709 mm Hg 31%

26 Ottobre, Lunedi

Tempo Temperatura Precipitazioni Vento Pressione Umidità
00:00 +20°C° 0 mm 5 m/s 708 mm Hg 32%
01:00 +19°C° 0 mm 4 m/s 708 mm Hg 33%
02:00 +18°C° 0 mm 4 m/s 708 mm Hg 34%
03:00 +18°C° 0 mm 4 m/s 708 mm Hg 35%
04:00 +17°C° 0 mm 4 m/s 708 mm Hg 35%
05:00 +16°C° 0 mm 5 m/s 709 mm Hg 35%
06:00 +16°C° 0 mm 5 m/s 709 mm Hg 35%
07:00 +17°C° 0 mm 5 m/s 709 mm Hg 32%
08:00 +20°C° 0 mm 6 m/s 710 mm Hg 28%
09:00 +22°C° 0 mm 7 m/s 710 mm Hg 25%
10:00 +25°C° 0 mm 5 m/s 710 mm Hg 23%
11:00 +26°C° 0 mm 4 m/s 709 mm Hg 22%
12:00 +28°C° 0 mm 3 m/s 709 mm Hg 20%
13:00 +28°C° 0 mm 4 m/s 709 mm Hg 21%
14:00 +29°C° 0 mm 4 m/s 708 mm Hg 22%
15:00 +29°C° 0 mm 4 m/s 708 mm Hg 23%
16:00 +28°C° 0 mm 5 m/s 708 mm Hg 27%
17:00 +27°C° 0 mm 6 m/s 708 mm Hg 31%
18:00 +26°C° 0 mm 7 m/s 708 mm Hg 35%
19:00 +25°C° 0 mm 5 m/s 708 mm Hg 37%
20:00 +25°C° 0 mm 4 m/s 709 mm Hg 39%
21:00 +24°C° 0 mm 3 m/s 709 mm Hg 41%
22:00 +24°C° 0 mm 3 m/s 709 mm Hg 41%
23:00 +24°C° 0 mm 3 m/s 708 mm Hg 41%

27 Ottobre, Martedi

Tempo Temperatura Precipitazioni Vento Pressione Umidità
00:00 +24°C° 0 mm 2 m/s 708 mm Hg 41%
01:00 +22°C° 0 mm 3 m/s 708 mm Hg 36%
02:00 +21°C° 0 mm 4 m/s 708 mm Hg 31%
03:00 +21°C° 0 mm 4 m/s 707 mm Hg 27%
04:00 +20°C° 0 mm 5 m/s 708 mm Hg 26%
05:00 +20°C° 0 mm 5 m/s 708 mm Hg 26%
06:00 +20°C° 0 mm 5 m/s 709 mm Hg 25%
07:00 +21°C° 0 mm 6 m/s 709 mm Hg 24%
08:00 +23°C° 0 mm 7 m/s 710 mm Hg 22%
09:00 +24°C° 0 mm 7 m/s 710 mm Hg 21%
10:00 +27°C° 0 mm 6 m/s 710 mm Hg 20%
11:00 +29°C° 0 mm 6 m/s 710 mm Hg 19%
12:00 +30°C° 0 mm 5 m/s 709 mm Hg 19%
13:00 +32°C° 0 mm 5 m/s 709 mm Hg 19%
14:00 +33°C° 0 mm 4 m/s 708 mm Hg 19%
15:00 +33°C° 0 mm 4 m/s 708 mm Hg 19%
16:00 +32°C° 0 mm 5 m/s 708 mm Hg 21%
17:00 +30°C° 0 mm 6 m/s 708 mm Hg 24%
18:00 +28°C° 0 mm 8 m/s 708 mm Hg 27%
19:00 +28°C° 0 mm 6 m/s 709 mm Hg 30%
20:00 +27°C° 0 mm 4 m/s 709 mm Hg 33%
21:00 +26°C° 0 mm 2 m/s 710 mm Hg 36%
22:00 +25°C° 0 mm 3 m/s 710 mm Hg 37%
23:00 +25°C° 0 mm 3 m/s 710 mm Hg 38%
Mostrare altro

Abbiamo bisogno del tuo consenso

Meteoprog e i nostri fornitori di servizi possono memorizzare e accedere a dati personali come cookie, identificatori di dispositivi o altre tecnologie simili sul tuo dispositivo e possono elaborare tali dati per personalizzare i contenuti e gli annunci, nonché fornire funzionalità dei social media e analizzarne il traffico.

  • Archiviare e/o accedere alle informazioni sul tuo dispositivo

    Cookie, identificatori di dispositivi o altre informazioni possono essere memorizzati o resi accessibili sul tuo dispositivo per le finalità sopra indicate.

  • Annunci e contenuti personalizzati, misurazione di annunci e contenuti, approfondimenti sul pubblico e sviluppo di prodotti

    Gli annunci e i contenuti possono essere personalizzati in base a un profilo. È possibile aggiungere più dati per personalizzare meglio annunci e contenuti. È possibile misurare il rendimento degli annunci e dei contenuti. È possibile ricavare informazioni sul pubblico che ha visto gli annunci e i contenuti. Tali dati possono essere utilizzati per sviluppare o migliorare l'esperienza, i sistemi e il software dell'utente.

Cliccando su “Accetto”, acconsenti all'uso di cookie, identificatori di dispositivo, web beacon o altre tecnologie simili. Puoi modificare le impostazioni nel browser del tuo dispositivo.

Per determinati scopi, è possibile fare affidamento su interessi legali, piuttosto che sul consenso. Puoi approfondire questo argomento consultando la nostra Informativa sulla privacy e sui cookie.